White Mountain, AK

3:22 AM AKDT on June 27, 2017 (GMT -0800)
White Mountain

Weather History for PAWM - April, 2014

Change the Weather History Date:

Sunday, April 13, 2014

  Actual Average (PAOM) Record (PAOM)
Temperature  
Mean Temperature 34 °F -  
Max Temperature 35 °F 25 °F 49 °F (1938)
Min Temperature 32 °F 11 °F -16 °F (1964)
Degree Days  
Heating Degree Days 32    
Moisture  
Dew Point 32 °F    
Average Humidity 94    
Maximum Humidity 100    
Minimum Humidity 87    
Precipitation  
Precipitation 0.02 in - - ()
Sea Level Pressure  
Sea Level Pressure 29.71 in    
Wind  
Wind Speed 10 mph (SE)    
Max Wind Speed 18 mph    
Max Gust Speed 26 mph    
Visibility 5 miles    
Events Fog , Rain , Snow    
Averages and records for this station are not official NWS values.
T = Trace of Precipitation, MM = Missing Value Source: NWS Daily Summary

Daily Weather History Graph

Daily Weather History Graph

Search for Another Location

Airport or City:

Trip Planner

Search our weather history database for the weather conditions in past years. The results will help you decide how hot, cold, wet, or windy it might be!

Date:

Astronomy

Apr. 13, 2014 Rise Set
Actual Time 7:25 AM AKDT 10:24 PM AKDT
Civil Twilight 6:29 AM AKDT 11:20 PM AKDT
Nautical Twilight 5:08 AM AKDT 12:44 AM AKDT
Astronomical Twilight 3:26 AM AKDT 2:21 AM AKDT
Moon 8:52 PM AKDT (4/13) 7:05 AM AKDT (4/13)
Length of Visible Light 16h 51m
Length of Day
14h 58m
Waxing Gibbous, 98% of the Moon is Illuminated
Apr 13
Waxing Gibbous
Apr 14
Full
Apr 21
Last Quarter
Apr 28
New
May 6
First Quarter

Hourly Weather History & Observations

Time (AKDT) Temp. Windchill Dew Point Humidity Pressure Visibility Wind Dir Wind Speed Gust Speed Precip Events Conditions
12:58 AM 32.0 °F 24.2 °F 30.9 °F 96% 29.79 in 9.0 mi East 9.2 mph - 0.00 in   Overcast
1:58 AM 32.0 °F 24.2 °F 30.9 °F 96% 29.78 in 6.0 mi East 9.2 mph - 0.00 in   Overcast
2:26 AM 32.0 °F 24.2 °F 30.2 °F 93% 29.74 in 6.0 mi East 9.2 mph - 0.00 in   Overcast
2:58 AM 32.0 °F 24.2 °F 30.9 °F 96% 29.78 in 10.0 mi East 9.2 mph - 0.00 in   Overcast
3:11 AM 32.0 °F 24.2 °F 30.2 °F 93% 29.74 in 9.0 mi East 9.2 mph - 0.00 in   Overcast
3:58 AM 33.1 °F 25.5 °F 30.9 °F 92% 29.78 in 10.0 mi ESE 9.2 mph - 0.00 in Rain Light Rain
4:20 AM 33.8 °F 27.7 °F 30.2 °F 87% 29.73 in 10.0 mi East 6.9 mph - 0.00 in   Overcast
4:58 AM 33.1 °F 26.1 °F 32.0 °F 96% 29.76 in 10.0 mi ESE 8.1 mph - 0.00 in   Overcast
5:22 AM 33.8 °F 28.6 °F 32.0 °F 93% 29.72 in 10.0 mi East 5.8 mph - N/A   Overcast
5:58 AM 33.1 °F 24.4 °F 32.0 °F 96% 29.75 in 10.0 mi East 11.5 mph - N/A   Overcast
6:58 AM 34.0 °F 26.0 °F 32.0 °F 92% 29.74 in 10.0 mi ESE 10.4 mph - N/A   Overcast
7:58 AM 34.0 °F 26.0 °F 32.0 °F 92% 29.73 in 10.0 mi ESE 10.4 mph - N/A   Overcast
8:10 AM 35.6 °F 27.1 °F 32.0 °F 87% 29.69 in 10.0 mi East 12.7 mph - N/A   Overcast
8:58 AM 35.1 °F 26.4 °F 33.1 °F 92% 29.73 in 10.0 mi ESE 12.7 mph - 0.00 in Rain Light Rain
9:34 AM 33.8 °F 25.3 °F 32.0 °F 93% 29.68 in 7.0 mi ESE 11.5 mph - 0.00 in Snow Light Snow
9:58 AM 34.0 °F 24.6 °F 32.0 °F 92% 29.72 in 5.0 mi SE 13.8 mph 17.3 mph 0.00 in Snow Light Snow
10:34 AM 33.8 °F 25.8 °F 33.8 °F 100% 29.68 in 8.0 mi ESE 10.4 mph - 0.00 in Rain Light Rain
10:58 AM 34.0 °F 26.0 °F 33.1 °F 96% 29.71 in 10.0 mi SE 10.4 mph - 0.00 in Rain Light Rain
11:58 AM 35.1 °F 24.8 °F 33.1 °F 92% 29.70 in 4.0 mi SE 17.3 mph 25.3 mph 0.00 in Rain Light Rain
12:05 PM 35.6 °F 25.2 °F 33.8 °F 93% 29.66 in 4.0 mi SE 18.4 mph 25.3 mph 0.00 in Rain Light Rain
12:09 PM 33.8 °F 23.2 °F 33.8 °F 100% 29.67 in 4.0 mi SE 17.3 mph 23.0 mph 0.00 in   Overcast
12:42 PM 35.6 °F 25.5 °F 33.8 °F 93% 29.66 in 2.5 mi SE 17.3 mph 25.3 mph 0.00 in   Overcast
12:58 PM 35.1 °F 25.9 °F 33.1 °F 92% 29.70 in 5.0 mi SE 13.8 mph 19.6 mph 0.00 in Rain Light Rain
1:58 PM 35.1 °F 25.2 °F 33.1 °F 92% 29.69 in 10.0 mi SE 16.1 mph 26.5 mph 0.00 in Rain Light Rain
2:11 PM 35.6 °F 26.2 °F 33.8 °F 93% 29.65 in 10.0 mi SSE 15.0 mph 20.7 mph 0.00 in Rain Light Rain
3:06 PM 35.6 °F 28.0 °F 33.8 °F 93% 29.66 in 10.0 mi SSE 10.4 mph - 0.00 in Rain Light Rain
3:18 PM 35.6 °F 28.6 °F 33.8 °F 93% 29.67 in 10.0 mi SSE 9.2 mph - 0.00 in Rain Light Rain
3:58 PM 34.0 °F 26.0 °F 33.1 °F 96% 29.70 in 8.0 mi SSE 10.4 mph - 0.00 in Rain Light Rain
4:04 PM 33.8 °F 26.4 °F 33.8 °F 100% 29.67 in 8.0 mi SSE 9.2 mph - 0.00 in Rain Light Rain
4:31 PM 33.8 °F 26.4 °F 32.0 °F 93% 29.67 in 1.8 mi SSE 9.2 mph - 0.00 in Snow Light Snow
4:40 PM 33.8 °F 27.0 °F 32.0 °F 93% 29.67 in 0.5 mi SSE 8.1 mph - 0.00 in Fog , Snow Light Snow
4:52 PM 33.8 °F 27.0 °F 32.0 °F 93% 29.68 in 0.2 mi SSE 8.1 mph - 0.01 in Fog , Snow Light Snow
4:58 PM 33.1 °F 25.5 °F 32.0 °F 96% 29.71 in 0.2 mi SSE 9.2 mph - 0.01 in Fog , Snow Light Snow
5:33 PM 33.8 °F 27.0 °F 32.0 °F 93% 29.68 in 0.5 mi SSE 8.1 mph - 0.00 in Fog , Snow Light Snow
5:49 PM 33.8 °F 26.4 °F 33.8 °F 100% 29.68 in 1.0 mi SSE 9.2 mph - 0.00 in Snow Light Snow
5:58 PM 34.0 °F 27.2 °F 32.0 °F 92% 29.72 in 1.0 mi SSE 8.1 mph - 0.00 in Snow Light Snow
6:04 PM 33.8 °F 26.4 °F 32.0 °F 93% 29.68 in 0.8 mi SSE 9.2 mph - 0.00 in Snow Light Snow
6:12 PM 33.8 °F 27.0 °F 32.0 °F 93% 29.68 in 0.5 mi SSE 8.1 mph - 0.00 in Fog , Snow Light Snow
6:22 PM 33.8 °F 27.0 °F 32.0 °F 93% 29.69 in 0.8 mi South 8.1 mph - 0.00 in Snow Light Snow
6:27 PM 33.8 °F 27.7 °F 32.0 °F 93% 29.68 in 0.5 mi South 6.9 mph - 0.00 in Fog , Snow Light Snow
6:34 PM 33.8 °F 26.4 °F 33.8 °F 100% 29.69 in 0.2 mi South 9.2 mph - 0.00 in Fog , Snow Light Snow
6:58 PM 33.1 °F 26.1 °F 32.0 °F 96% 29.73 in 0.2 mi South 8.1 mph - 0.01 in Fog , Snow Light Snow
7:27 PM 33.8 °F 27.7 °F 32.0 °F 93% 29.69 in 0.8 mi South 6.9 mph - 0.00 in Rain Light Rain
7:29 PM 33.8 °F 26.4 °F 32.0 °F 93% 29.69 in 1.2 mi South 9.2 mph - 0.00 in Rain Light Rain
7:34 PM 33.8 °F 27.0 °F 32.0 °F 93% 29.70 in 0.8 mi South 8.1 mph - 0.00 in Snow Light Snow
7:48 PM 33.8 °F 27.7 °F 32.0 °F 93% 29.70 in 0.5 mi South 6.9 mph - 0.00 in Fog , Snow Light Snow
7:58 PM 33.1 °F 25.5 °F 32.0 °F 96% 29.74 in 0.5 mi South 9.2 mph - 0.00 in Fog , Snow Light Snow
8:07 PM 33.8 °F 26.4 °F 32.0 °F 93% 29.70 in 0.2 mi South 9.2 mph - 0.00 in Fog , Snow Light Snow
8:58 PM 33.1 °F 27.7 °F 32.0 °F 96% 29.75 in 0.2 mi South 5.8 mph - 0.00 in Fog , Rain Light Rain
9:58 PM 32.0 °F 26.4 °F 30.9 °F 96% 29.77 in 0.2 mi South 5.8 mph - 0.00 in Fog Fog
10:58 PM 32.0 °F 27.5 °F 30.9 °F 96% 29.77 in 0.2 mi South 4.6 mph - 0.00 in Fog Fog
11:24 PM 32.0 °F 28.7 °F 30.2 °F 93% 29.74 in 0.5 mi SE 3.5 mph - N/A Fog Fog
11:33 PM 32.0 °F - 30.2 °F 93% 29.74 in 0.8 mi Calm Calm - N/A   Overcast
11:43 PM 32.0 °F - 30.2 °F 93% 29.74 in 0.5 mi Calm Calm - N/A Fog Fog
11:58 PM 32.0 °F - 30.9 °F 96% 29.78 in 0.5 mi Calm Calm - N/A Fog Fog